Regional Weather Roundup
Issued by NWS

Home | Current Version | Previous Version | Text Only | Print | Product List | Glossary Off
Versions: 1 2 3 4 5 6 7 8 9 10 11 12 13 14 15 16 17 18 19 20 21 22 23 24 25 26 27 28 29 30 31 32 33 34 35 36 37 38 39 40 41 42 43 44 45 46 47 48 49 50

000
ASUS43 KDMX 261303
RWRIA

WEATHER ROUNDUP FOR IOWA
NATIONAL WEATHER SERVICE DES MOINES IA
800 AM CDT THU MAY 26 2016

NOTE: "FAIR" INDICATES FEW OR NO CLOUDS BELOW 12,000 FEET WITH NO
SIGNIFICANT WEATHER AND/OR OBSTRUCTIONS TO VISIBILITY.

* - THESE STATIONS ARE NOT NWS STATIONS...THUS NOT UNDER NWS
QUALITY CONTROL.  THEY ALSO DO NOT REPORT WEATHER SUCH
AS PRECIPITATION OR FOG.

IAZ001>003-012>014-020>022-031>034-043>046-261400-
   NORTHWEST IOWA

CITY           SKY/WX    TMP DP  RH WIND       PRES   REMARKS
CARROLL *      SUNNY     61  59  94 S6        29.89R
CHEROKEE *     SUNNY     60  60 100 SW7       29.89R
DENISON *      SUNNY     61  57  88 W5        29.88R
LE MARS *      SUNNY     63  59  88 SW7       29.91R
ORANGE CITY *  SUNNY     61  57  88 SW6       29.89R
SHELDON *      SUNNY     63  57  82 W6        29.87R
SIOUX CITY     SUNNY     62  58  86 S3        29.90R
SPENCER        SUNNY     63  57  81 SW9       29.87R
STORM LAKE *   SUNNY     61  57  88 SW9       29.90R
$$

IAZ055>058-069>071-079>083-090>094-261400-
   SOUTHWEST IOWA

CITY           SKY/WX    TMP DP  RH WIND       PRES   REMARKS
ATLANTIC *     SUNNY     64  61  88 CALM      29.88S
AUDUBON *      SUNNY     63  57  82 CALM      29.90S
CLARINDA *       N/A     66  61  82 MISG      29.89R
COUNCIL BLFS * SUNNY     64  59  82 CALM      29.89S
CRESTON *      SUNNY     66  61  82 SE7       29.90R
HARLAN  *      SUNNY     63  59  88 CALM      29.92S
LAMONI         SUNNY     67  63  87 E6        29.89S
RED OAK *      SUNNY     64  63  94 N5        29.88R
SHENANDOAH *   SUNNY     66  63  88 CALM      29.88R
$$

IAZ047>049-059>061-072>074-084-261400-
   CENTRAL IOWA

CITY           SKY/WX    TMP DP  RH WIND       PRES   REMARKS
AMES           SUNNY     63  58  83 SE8       29.87F
ANKENY *       SUNNY     64  61  88 SE7       29.88F
BOONE *        SUNNY     64  59  82 SE9       29.86S
CHARITON *     CLOUDY    68  63  83 VRB3      29.90R
DES MOINES     MOSUNNY   66  59  78 E5        29.88S
GRINNELL*      MOSUNNY   61  59  94 CALM      29.90F
KNOXVILLE *    CLOUDY    64  59  82 E5        29.88S
NEWTON *       CLOUDY    63  61  94 CALM      29.89F
PERRY *          N/A     63  59  88 SE6       29.88F
$$

IAZ004>006-015-016-023>025-035-036-261400-
   NORTH CENTRAL IOWA

CITY           SKY/WX    TMP DP  RH WIND       PRES   REMARKS
ALGONA *       SUNNY     63  59  88 S9        29.85F
CLARION *      SUNNY     63  59  88 CALM      29.86S
ESTHERVILLE    SUNNY     61  57  87 SW8       29.86R
FORT DODGE *   SUNNY     63  55  77 S5        29.87S
MASON CITY     CLOUDY    62  58  86 S5        29.87R
FOREST CITY *  SUNNY     59  59 100 SW3       29.86F
WEBSTER CITY * SUNNY     64  61  88 CALM      29.85R
IOWA FALLS *     N/A     64  59  82 SE5       29.86S
$$

IAZ007>011-017>019-026>030-037>042-050>054-066-261400-
   NORTHEAST IOWA

CITY           SKY/WX    TMP DP  RH WIND       PRES   REMARKS
CEDAR RAPIDS   PTSUNNY   64  60  87 CALM      29.89R
CHARLES CITY * MOSUNNY   61  61 100 S3        29.85S
CLINTON *      CLOUDY    63  61  93 S3        29.91F
DECORAH *      PTSUNNY   59  59 100 CALM      29.81F
DUBUQUE        CLOUDY    64  58  80 N7        29.87R
MONTICELLO *   CLOUDY    66  59  77 N6        29.88R
OELWEIN *      CLOUDY    63  59  88 N5        29.86S
WATERLOO       CLOUDY    61  58  90 CALM      29.85F
$$

IAZ064-065-067-068-078-261400-
   EAST CENTRAL IOWA

CITY           SKY/WX    TMP DP  RH WIND       PRES   REMARKS
DAVENPORT      CLOUDY    63  60  90 SE7       29.91F
IOWA CITY      CLOUDY    66  58  75 N7        29.90S
MT. PLEASANT * CLOUDY    72  63  73 NE9       29.89F
MUSCATINE *    PTSUNNY   70  57  64 SE9       29.89F
QUAD CITIES    CLOUDY    67  61  81 CALM      29.90F
$$

IAZ062-063-075>077-085>089-095>099-261400-
   SOUTHEAST IOWA

CITY           SKY/WX    TMP DP  RH WIND       PRES   REMARKS
BURLINGTON     CLOUDY    67  65  93 E6        29.90F
FAIRFIELD *      N/A    N/A N/A N/A MISG        N/A
FORT MADISON * CLOUDY    66  64  94 SE3       29.92R
KEOKUK *       CLOUDY    68  64  88 NE5       29.90R
OSKALOOSA *      N/A     63  59  88 E9        29.89F
OTTUMWA        CLOUDY    64  59  83 E10       29.88S
WASHINGTON *   SUNNY     66  66 100 SE9       29.89F
$$

ABBREVIATIONS USED IN REMARKS
   TC - TEMPERATURES IN CELSIUS
  WCI - WIND CHILL INDEX
   HX - HEAT INDEX
  VSB - VISIBILITY
$$





USA.gov is the U.S. government's official web portal to all federal, state and local government web resources and services.